Regional Weather Roundup
Issued by NWS

Home | Current Version | Previous Version | Text Only | Print | Product List | Glossary On
Versions: 1 2 3 4 5 6 7 8 9 10 11 12 13 14 15 16 17 18 19 20 21 22 23 24 25 26 27 28 29 30 31 32 33 34 35 36 37 38 39 40 41 42 43 44 45 46 47 48 49 50
000
ASPQ40 PGUM 040714
RWRPQ
WEATHER ROUNDUP FOR THE MARIANAS AND MICRONESIA
NATIONAL WEATHER SERVICE TIYAN GU
500 PM CHST SAT JUL 04 2015

GUZ001>004-040800-
MARIANA ISLANDS-

CITY           SKY/WX    TMP DP  RH WIND       PRES   REMARKS
GUAM AIRPORT   CLOUDY    81  75  83 N9        29.53S
ANDERSEN AFB   PTSUNNY   79  75  89 NE16G26   29.53S
ROTA AIRPORT   NOT AVBL
TINIAN AP      NOT AVBL
SAIPAN AP      HVY RAIN  79  79 100 E25G37    29.52F VSB 1/4

$$

PMZ161-040800-
REPUBLIC OF PALAU-

CITY           SKY/WX    TMP DP  RH WIND       PRES   REMARKS
KOROR AP       CLOUDY    84  75  74 SW12      29.75S HX  92
KOROR WSO      CLOUDY    84  75  74 W13       29.75S HX  92

$$

PMZ171>174-040800-
FEDERATED STATES OF MICRONESIA-

CITY           SKY/WX    TMP DP  RH WIND       PRES   REMARKS
YAP AIRPORT    CLOUDY    82  77  83 W8        29.72R HX  91
CHUUK AP       CLOUDY    82  77  83 S9        29.66R HX  91
POHNPEI AP     NOT AVBL
POHNPEI WSO    CLOUDY    81  75  83 SW7       29.76R
KOSRAE AP      NOT AVBL

$$

PMZ181-040800-
REPUBLIC OF THE MARSHALL ISLANDS-

CITY           SKY/WX    TMP DP  RH WIND       PRES   REMARKS
KWAJALEIN AP   PTCLDY    82  73  74 W13       29.68R
MAJURO AP      NOT AVBL
MAJURO WSO     MOCLDY    84  77  79 SW10      29.70R HX  94

$$



USA.gov is the U.S. government's official web portal to all federal, state and local government web resources and services.